Weather History for Fort Myers Airport, FL

Change the Weather History Date:

Sunday, April 7, 2013

  Actual Average Record
Temperature  
Mean Temperature 72 °F -  
Max Temperature 84 °F 81 °F 90 °F (2006)
Min Temperature 60 °F 59 °F 41 °F (1950)
Cooling Degree Days 7    
Growing Degree Days 22 (Base 50)    
Moisture  
Dew Point 59 °F    
Average Humidity 67    
Maximum Humidity 93    
Minimum Humidity 35    
Precipitation  
Precipitation 0.00 in - - ()
Sea Level Pressure  
Sea Level Pressure 30.08 in    
Wind  
Wind Speed 5 mph (East)    
Max Wind Speed 16 mph    
Max Gust Speed 20 mph    
Visibility 10 miles    
Events      
Averages and records for this station are not official NWS values.
T = Trace of Precipitation, MM = Missing Value Source: NWS Daily Summary

Daily Weather History Graph

Daily Weather History Graph

Search for Another Location

Airport:

Trip Planner

Search our weather history database for the weather conditions in past years. The results will help you decide how hot, cold, wet, or windy it might be!

Date:

Astronomy

Apr. 07, 2013 Rise Set
Actual Time 7:11 AM EDT 7:47 PM EDT
Civil Twilight 6:47 AM EDT 8:10 PM EDT
Nautical Twilight 6:20 AM EDT 8:38 PM EDT
Astronomical Twilight 5:52 AM EDT 9:06 PM EDT
Moon 5:13 AM EDT (4/7) 5:29 PM EDT (4/7)
Length of Visible Light 13h 22m
Length of Day
12h 35m
Waning Crescent, 8% of the Moon is Illuminated
Apr 7
Waning Crescent
Apr 10
New
Apr 18
First Quarter
Apr 25
Full
May 2
Last Quarter

Hourly Weather History & Observations

Time (EDT) Temp. Heat Index Dew Point Humidity Pressure Visibility Wind Dir Wind Speed Gust Speed Precip Events Conditions
12:53 AM 64.0 °F - 57.0 °F 78% 30.10 in 10.0 mi Calm Calm - N/A   Clear
1:53 AM 63.0 °F - 57.9 °F 84% 30.08 in 10.0 mi Calm Calm - N/A   Clear
2:53 AM 62.1 °F - 57.0 °F 84% 30.06 in 10.0 mi Calm Calm - N/A   Partly Cloudy
3:53 AM 60.1 °F - 57.0 °F 90% 30.04 in 10.0 mi ENE 5.8 mph - N/A   Partly Cloudy
4:53 AM 60.1 °F - 57.0 °F 90% 30.04 in 10.0 mi NE 3.5 mph - N/A   Partly Cloudy
5:53 AM 60.1 °F - 57.9 °F 93% 30.05 in 10.0 mi Calm Calm - N/A   Scattered Clouds
6:53 AM 61.0 °F - 57.9 °F 90% 30.07 in 10.0 mi NE 4.6 mph - N/A   Partly Cloudy
7:53 AM 62.1 °F - 59.0 °F 90% 30.09 in 10.0 mi NE 5.8 mph - N/A   Clear
8:53 AM 66.9 °F - 61.0 °F 81% 30.11 in 10.0 mi NE 8.1 mph - N/A   Partly Cloudy
9:53 AM 73.0 °F - 61.0 °F 66% 30.13 in 10.0 mi ENE 13.8 mph - N/A   Clear
10:53 AM 75.9 °F - 60.1 °F 58% 30.13 in 10.0 mi East 16.1 mph - N/A   Clear
11:53 AM 78.1 °F - 59.0 °F 52% 30.13 in 10.0 mi East 10.4 mph 18.4 mph N/A   Clear
12:53 PM 81.0 °F 81.1 °F 57.9 °F 45% 30.12 in 10.0 mi East 8.1 mph - N/A   Partly Cloudy
1:53 PM 80.1 °F 80.4 °F 57.0 °F 45% 30.09 in 10.0 mi East 12.7 mph - N/A   Scattered Clouds
2:53 PM 84.0 °F 82.6 °F 54.0 °F 35% 30.07 in 10.0 mi SE 6.9 mph - N/A   Partly Cloudy
3:53 PM 81.0 °F 80.8 °F 55.9 °F 42% 30.05 in 10.0 mi East 8.1 mph - N/A   Scattered Clouds
4:53 PM 82.9 °F 82.1 °F 55.9 °F 39% 30.04 in 10.0 mi East 10.4 mph 19.6 mph N/A   Scattered Clouds
5:53 PM 80.1 °F 80.9 °F 60.1 °F 50% 30.04 in 10.0 mi East 11.5 mph - N/A   Overcast
6:53 PM 79.0 °F - 61.0 °F 54% 30.04 in 10.0 mi East 13.8 mph - N/A   Clear
7:53 PM 75.9 °F - 61.0 °F 60% 30.05 in 10.0 mi East 10.4 mph - N/A   Overcast
8:53 PM 73.9 °F - 61.0 °F 64% 30.08 in 10.0 mi East 10.4 mph - N/A   Overcast
9:53 PM 72.0 °F - 61.0 °F 68% 30.10 in 10.0 mi East 9.2 mph - N/A   Overcast
10:53 PM 70.0 °F - 60.1 °F 71% 30.11 in 10.0 mi ESE 8.1 mph - N/A   Partly Cloudy
11:53 PM 69.1 °F - 60.1 °F 73% 30.10 in 10.0 mi ESE 5.8 mph - N/A   Overcast